DAL682 KATL-KSMF

Flight info

Callsign DAL682
Flight time N/A
Altitude 26000
Route CUTTN2 HANKO MEMFS/N0434F280 ECIGE MAYJI TUL TOTOE DVC/N0443F300 MLF REANA Q130 JSICA MVA CRASY SLMMR5
Aircraft B739/M-SDE2E3FGHIRWXY/LB1

Departure

Time N/A
Airport Hartsfield Jackson Atlanta International Airport (KATL)

Arrival

Time 2026-05-05 06:10
Airport Sacramento International Airport (KSMF)
Time Latitude Longitude Altitude Speed Heading
2026-05-05 03:44 37.24079 -102.55309 31584 ft 359 kts 277°
2026-05-05 03:44 37.24440 -102.58404 31580 ft 359 kts 277°
2026-05-05 03:44 37.25162 -102.64614 31587 ft 360 kts 276°
2026-05-05 03:45 37.25877 -102.70789 31582 ft 360 kts 276°
2026-05-05 03:45 37.26593 -102.77012 31601 ft 361 kts 276°
2026-05-05 03:46 37.27308 -102.83245 31585 ft 360 kts 276°
2026-05-05 03:46 37.28018 -102.89466 31590 ft 360 kts 276°
2026-05-05 03:47 37.28718 -102.95636 31596 ft 359 kts 276°
2026-05-05 03:47 37.29419 -103.01842 31599 ft 359 kts 276°
2026-05-05 03:48 37.30116 -103.08041 31608 ft 358 kts 276°
2026-05-05 03:48 37.30809 -103.14232 31600 ft 358 kts 276°
2026-05-05 03:49 37.31494 -103.20379 31603 ft 358 kts 276°
2026-05-05 03:49 37.32180 -103.26569 31611 ft 358 kts 276°
2026-05-05 03:50 37.32863 -103.32767 31618 ft 358 kts 275°
2026-05-05 03:50 37.33545 -103.38977 31622 ft 359 kts 275°
2026-05-05 03:51 37.34219 -103.45149 31614 ft 359 kts 275°
2026-05-05 03:51 37.34896 -103.51381 31609 ft 360 kts 275°
2026-05-05 03:52 37.35570 -103.57618 31619 ft 361 kts 275°
2026-05-05 03:52 37.36243 -103.63874 31620 ft 362 kts 275°
2026-05-05 03:53 37.36910 -103.70105 31620 ft 362 kts 275°
2026-05-05 03:53 37.37579 -103.76391 31620 ft 363 kts 275°
2026-05-05 03:54 37.38246 -103.82683 31626 ft 364 kts 275°
2026-05-05 03:54 37.38905 -103.88943 31614 ft 364 kts 275°
2026-05-05 03:55 37.39566 -103.95243 31618 ft 363 kts 274°
2026-05-05 03:55 37.40223 -104.01540 31623 ft 363 kts 274°
2026-05-05 03:56 37.40876 -104.07836 31629 ft 363 kts 274°
2026-05-05 03:56 37.41525 -104.14129 31630 ft 363 kts 274°
2026-05-05 03:57 37.42167 -104.20381 31629 ft 363 kts 274°
2026-05-05 03:57 37.42810 -104.26673 31632 ft 363 kts 274°
2026-05-05 03:58 37.43450 -104.32977 31642 ft 364 kts 274°
2026-05-05 03:58 37.44088 -104.39303 31652 ft 365 kts 274°
2026-05-05 03:59 37.44721 -104.45608 31654 ft 366 kts 274°
2026-05-05 03:59 37.45358 -104.51982 31675 ft 367 kts 274°
2026-05-05 04:00 37.45993 -104.58366 31677 ft 368 kts 274°
2026-05-05 04:00 37.46624 -104.64753 31702 ft 368 kts 274°
2026-05-05 04:01 37.47248 -104.71102 31700 ft 368 kts 274°
2026-05-05 04:01 37.47872 -104.77495 31701 ft 368 kts 274°
2026-05-05 04:02 37.48492 -104.83879 31697 ft 367 kts 274°
2026-05-05 04:02 37.49108 -104.90253 31703 ft 366 kts 274°
2026-05-05 04:03 37.49719 -104.96612 31706 ft 365 kts 274°
2026-05-05 04:03 37.50322 -105.02933 31729 ft 367 kts 274°
2026-05-05 04:04 37.50928 -105.09321 31768 ft 368 kts 274°
2026-05-05 04:04 37.51534 -105.15734 31768 ft 369 kts 274°
2026-05-05 04:05 37.52137 -105.22169 31791 ft 371 kts 274°
2026-05-05 04:05 37.52736 -105.28594 31795 ft 373 kts 274°
2026-05-05 04:06 37.53337 -105.35064 31789 ft 369 kts 274°
2026-05-05 04:06 37.53924 -105.41419 31799 ft 363 kts 274°
2026-05-05 04:07 37.54502 -105.47725 31823 ft 361 kts 274°
2026-05-05 04:07 37.55067 -105.53956 31870 ft 361 kts 274°
2026-05-05 04:08 37.55637 -105.60253 31898 ft 363 kts 274°
2026-05-05 04:08 37.56206 -105.66575 31939 ft 363 kts 273°
2026-05-05 04:09 37.56772 -105.72912 31956 ft 364 kts 273°
2026-05-05 04:09 37.57332 -105.79211 31960 ft 364 kts 273°
2026-05-05 04:10 37.57892 -105.85556 31985 ft 364 kts 273°
2026-05-05 04:10 37.58450 -105.91904 31961 ft 364 kts 273°
2026-05-05 04:11 37.58727 -105.95078 31816 ft 364 kts 273°
2026-05-05 04:11 37.59003 -105.98244 31832 ft 364 kts 273°
2026-05-05 04:11 37.59552 -106.04581 31878 ft 363 kts 272°
2026-05-05 04:12 37.60093 -106.10866 31924 ft 363 kts 272°
2026-05-05 04:12 37.60636 -106.17211 31989 ft 367 kts 272°
2026-05-05 04:13 37.60909 -106.20431 32212 ft 369 kts 272°
2026-05-05 04:13 37.61182 -106.23637 32598 ft 367 kts 272°
2026-05-05 04:13 37.61453 -106.26825 33018 ft 364 kts 272°
2026-05-05 04:13 37.61721 -106.29996 33316 ft 364 kts 272°
2026-05-05 04:14 37.61989 -106.33181 33535 ft 365 kts 272°
2026-05-05 04:14 37.62252 -106.36330 33686 ft 367 kts 272°
2026-05-05 04:14 37.62519 -106.39543 33820 ft 370 kts 272°
2026-05-05 04:14 37.62787 -106.42762 34025 ft 370 kts 272°
2026-05-05 04:15 37.63322 -106.49213 33994 ft 368 kts 272°
2026-05-05 04:15 37.63849 -106.55602 33967 ft 365 kts 272°
2026-05-05 04:16 37.64366 -106.61927 33952 ft 365 kts 272°
2026-05-05 04:16 37.64883 -106.68308 33929 ft 366 kts 272°
2026-05-05 04:17 37.65399 -106.74708 33920 ft 367 kts 271°
2026-05-05 04:17 37.65913 -106.81126 33907 ft 368 kts 271°
2026-05-05 04:18 37.66424 -106.87560 33905 ft 369 kts 271°
2026-05-05 04:18 37.66930 -106.93955 33909 ft 368 kts 271°
2026-05-05 04:19 37.67435 -107.00384 33919 ft 369 kts 271°
2026-05-05 04:19 37.67936 -107.06836 33920 ft 369 kts 271°
2026-05-05 04:20 37.68435 -107.13281 33931 ft 369 kts 271°
2026-05-05 04:20 37.68926 -107.19685 33936 ft 369 kts 271°
2026-05-05 04:21 37.69418 -107.26158 33935 ft 371 kts 271°
2026-05-05 04:21 37.69911 -107.32656 33930 ft 372 kts 271°
2026-05-05 04:22 37.70398 -107.39143 33930 ft 371 kts 271°
2026-05-05 04:22 37.70882 -107.45625 33920 ft 370 kts 270°
2026-05-05 04:23 37.71356 -107.52020 33937 ft 366 kts 270°
2026-05-05 04:23 37.71824 -107.58401 33901 ft 364 kts 270°
2026-05-05 04:24 37.72287 -107.64739 33933 ft 363 kts 270°
2026-05-05 04:25 37.72970 -107.74225 33928 ft 363 kts 270°
2026-05-05 04:25 37.73423 -107.80589 33910 ft 364 kts 270°
2026-05-05 04:25 37.73649 -107.83778 34024 ft 364 kts 270°
2026-05-05 04:26 37.73876 -107.86972 34000 ft 366 kts 270°
2026-05-05 04:26 37.74328 -107.93381 34011 ft 367 kts 269°
2026-05-05 04:27 37.74778 -107.99806 33997 ft 368 kts 269°
2026-05-05 04:27 37.75221 -108.06206 33991 ft 368 kts 269°
2026-05-05 04:28 37.75666 -108.12661 33969 ft 369 kts 269°
2026-05-05 04:28 37.76107 -108.19131 33932 ft 369 kts 269°
2026-05-05 04:29 37.76545 -108.25592 33889 ft 369 kts 269°
2026-05-05 04:29 37.76976 -108.32014 33866 ft 369 kts 269°
2026-05-05 04:30 37.77406 -108.38465 33871 ft 368 kts 269°
2026-05-05 04:30 37.77831 -108.44911 33839 ft 368 kts 269°
2026-05-05 04:31 37.78252 -108.51339 33852 ft 367 kts 269°
2026-05-05 04:31 37.78666 -108.57726 33838 ft 367 kts 269°
2026-05-05 04:32 37.79080 -108.64144 33830 ft 366 kts 269°
2026-05-05 04:32 37.79489 -108.70566 33826 ft 366 kts 269°
2026-05-05 04:33 37.79895 -108.76975 33824 ft 366 kts 269°
2026-05-05 04:33 37.80295 -108.83350 33816 ft 366 kts 268°
2026-05-05 04:34 37.80695 -108.89772 33840 ft 366 kts 268°
2026-05-05 04:34 37.81332 -108.96193 33816 ft 371 kts 273°
2026-05-05 04:35 37.82319 -109.02574 33798 ft 369 kts 273°
2026-05-05 04:35 37.83298 -109.08880 33799 ft 367 kts 273°
2026-05-05 04:36 37.84265 -109.15193 33807 ft 364 kts 272°
2026-05-05 04:36 37.85216 -109.21470 33807 ft 363 kts 272°
2026-05-05 04:37 37.86158 -109.27724 33808 ft 361 kts 272°
2026-05-05 04:37 37.87087 -109.33925 33820 ft 361 kts 272°
2026-05-05 04:38 37.88019 -109.40162 33813 ft 361 kts 272°
2026-05-05 04:38 37.88945 -109.46396 33826 ft 361 kts 272°
2026-05-05 04:39 37.89871 -109.52641 33814 ft 361 kts 271°
2026-05-05 04:39 37.90790 -109.58869 33815 ft 363 kts 271°
2026-05-05 04:40 37.91718 -109.65192 33789 ft 366 kts 271°
2026-05-05 04:40 37.92649 -109.71533 33770 ft 366 kts 271°
2026-05-05 04:41 37.93574 -109.77858 33775 ft 365 kts 271°
2026-05-05 04:41 37.94492 -109.84168 33768 ft 364 kts 271°
2026-05-05 04:42 37.95399 -109.90430 33761 ft 364 kts 271°
2026-05-05 04:42 37.96308 -109.96737 33752 ft 364 kts 271°
2026-05-05 04:43 37.97215 -110.03048 33747 ft 365 kts 271°
2026-05-05 04:43 37.98118 -110.09357 33747 ft 364 kts 271°
2026-05-05 04:44 37.99013 -110.15634 33750 ft 365 kts 271°
2026-05-05 04:44 37.99913 -110.21972 33735 ft 365 kts 271°
2026-05-05 04:45 38.00809 -110.28318 33724 ft 366 kts 271°
2026-05-05 04:45 38.01704 -110.34660 33721 ft 365 kts 272°
2026-05-05 04:46 38.02588 -110.40972 33705 ft 367 kts 272°
2026-05-05 04:46 38.03478 -110.47346 33727 ft 368 kts 272°
2026-05-05 04:47 38.04369 -110.53758 33717 ft 370 kts 272°
2026-05-05 04:47 38.05263 -110.60212 33718 ft 372 kts 272°
2026-05-05 04:48 38.06151 -110.66645 33719 ft 373 kts 271°
2026-05-05 04:48 38.07043 -110.73125 33714 ft 372 kts 271°
2026-05-05 04:49 38.07927 -110.79572 33725 ft 370 kts 271°
2026-05-05 04:49 38.08804 -110.86018 33722 ft 372 kts 271°
2026-05-05 04:50 38.09677 -110.92463 33729 ft 374 kts 271°
2026-05-05 04:50 38.10556 -110.98969 33734 ft 374 kts 271°
2026-05-05 04:51 38.11434 -111.05501 33746 ft 376 kts 272°
2026-05-05 04:51 38.12312 -111.12055 33747 ft 377 kts 272°
2026-05-05 04:52 38.13184 -111.18596 33777 ft 379 kts 272°
2026-05-05 04:52 38.14061 -111.25202 33768 ft 380 kts 272°
2026-05-05 04:53 38.14937 -111.31829 33789 ft 381 kts 272°
2026-05-05 04:53 38.15808 -111.38446 33781 ft 380 kts 272°
2026-05-05 04:54 38.16673 -111.45046 33796 ft 380 kts 272°
2026-05-05 04:54 38.17538 -111.51683 33801 ft 380 kts 272°
2026-05-05 04:55 38.18393 -111.58280 33841 ft 381 kts 272°
2026-05-05 04:55 38.19255 -111.64960 33823 ft 382 kts 272°
2026-05-05 04:56 38.20106 -111.71572 33825 ft 382 kts 272°
2026-05-05 04:56 38.20679 -111.76041 33826 ft 382 kts 272°
2026-05-05 04:57 38.21814 -111.84955 33831 ft 386 kts 273°
2026-05-05 04:57 38.22671 -111.91716 33835 ft 389 kts 273°
2026-05-05 04:58 38.23528 -111.98516 33826 ft 394 kts 273°
2026-05-05 04:58 38.24396 -112.05420 33812 ft 396 kts 273°
2026-05-05 04:59 38.25263 -112.12357 33827 ft 398 kts 273°
2026-05-05 04:59 38.25985 -112.18161 33834 ft 400 kts 274°
2026-05-05 05:00 38.26994 -112.26308 33811 ft 401 kts 274°
2026-05-05 05:00 38.27858 -112.33322 33806 ft 401 kts 274°
2026-05-05 05:01 38.28573 -112.39150 33818 ft 401 kts 274°
2026-05-05 05:01 38.29428 -112.46156 33827 ft 401 kts 274°
2026-05-05 05:02 38.30416 -112.54312 33817 ft 402 kts 274°
2026-05-05 05:02 38.31128 -112.60218 33812 ft 403 kts 274°
2026-05-05 05:03 38.31971 -112.67233 33835 ft 404 kts 274°
2026-05-05 05:03 38.32817 -112.74316 33857 ft 405 kts 274°
2026-05-05 05:04 38.33659 -112.81401 33872 ft 405 kts 274°
2026-05-05 05:04 38.34498 -112.88498 33905 ft 406 kts 274°
2026-05-05 05:05 38.35335 -112.95610 33931 ft 406 kts 274°
2026-05-05 05:05 38.36109 -113.02695 33919 ft 405 kts 271°
2026-05-05 05:06 38.36396 -113.09851 33927 ft 404 kts 269°
2026-05-05 05:06 38.36591 -113.17008 33902 ft 405 kts 269°
2026-05-05 05:07 38.36807 -113.24186 33866 ft 406 kts 269°
2026-05-05 05:07 38.37038 -113.31320 33837 ft 406 kts 269°
2026-05-05 05:08 38.37275 -113.38505 33817 ft 406 kts 269°
2026-05-05 05:08 38.37509 -113.45710 33775 ft 407 kts 269°
2026-05-05 05:09 38.37739 -113.52918 33797 ft 407 kts 269°
2026-05-05 05:09 38.37965 -113.60140 33789 ft 408 kts 269°
2026-05-05 05:10 38.38185 -113.67327 33801 ft 409 kts 269°
2026-05-05 05:10 38.38402 -113.74576 33792 ft 410 kts 269°
2026-05-05 05:11 38.38616 -113.81837 33801 ft 410 kts 268°
2026-05-05 05:11 38.38825 -113.89107 33813 ft 411 kts 268°
2026-05-05 05:12 38.39028 -113.96333 33815 ft 411 kts 268°
2026-05-05 05:12 38.39229 -114.03624 33803 ft 412 kts 268°
2026-05-05 05:13 38.39426 -114.10930 33805 ft 412 kts 268°
2026-05-05 05:13 38.39618 -114.18235 33804 ft 412 kts 268°
2026-05-05 05:14 38.39804 -114.25482 33802 ft 412 kts 268°
2026-05-05 05:14 38.39988 -114.32772 33801 ft 411 kts 268°
2026-05-05 05:15 38.40291 -114.40058 33802 ft 412 kts 269°
2026-05-05 05:15 38.40706 -114.47357 33799 ft 413 kts 269°
2026-05-05 05:16 38.41110 -114.54614 33789 ft 413 kts 269°
2026-05-05 05:16 38.41496 -114.61908 33790 ft 412 kts 269°
2026-05-05 05:17 38.41869 -114.69204 33784 ft 412 kts 269°
2026-05-05 05:17 38.42235 -114.76498 33792 ft 413 kts 269°
2026-05-05 05:18 38.42595 -114.83766 33775 ft 413 kts 269°
2026-05-05 05:18 38.42953 -114.91084 33774 ft 413 kts 269°
2026-05-05 05:19 38.43306 -114.98396 33772 ft 413 kts 269°
2026-05-05 05:19 38.43656 -115.05714 33773 ft 414 kts 268°
2026-05-05 05:20 38.44000 -115.13040 33778 ft 414 kts 268°
2026-05-05 05:20 38.44339 -115.20338 33771 ft 415 kts 268°
2026-05-05 05:21 38.44676 -115.27694 33773 ft 416 kts 268°
2026-05-05 05:21 38.45009 -115.35067 33786 ft 417 kts 268°
2026-05-05 05:22 38.45338 -115.42448 33783 ft 418 kts 268°
2026-05-05 05:22 38.45663 -115.49869 33783 ft 420 kts 268°
2026-05-05 05:23 38.45984 -115.57278 33780 ft 422 kts 269°
2026-05-05 05:23 38.46304 -115.64758 33816 ft 422 kts 269°
2026-05-05 05:24 38.46619 -115.72255 33800 ft 424 kts 269°
2026-05-05 05:24 38.46930 -115.79783 33797 ft 425 kts 269°
2026-05-05 05:25 38.47236 -115.87273 33792 ft 426 kts 269°
2026-05-05 05:25 38.47539 -115.94827 33804 ft 427 kts 269°
2026-05-05 05:26 38.47837 -116.02400 33815 ft 428 kts 269°
2026-05-05 05:26 38.48132 -116.10003 33802 ft 429 kts 269°
2026-05-05 05:27 38.48421 -116.17569 33818 ft 430 kts 269°
2026-05-05 05:27 38.48848 -116.29023 33819 ft 432 kts 270°
2026-05-05 05:28 38.49129 -116.36708 33821 ft 435 kts 270°
2026-05-05 05:28 38.49174 -116.37956 33820 ft 435 kts 270°
2026-05-05 05:29 38.49693 -116.52588 33839 ft 440 kts 270°
2026-05-05 05:29 38.49963 -116.60414 33841 ft 443 kts 271°
2026-05-05 05:30 38.50228 -116.68228 33847 ft 445 kts 271°
2026-05-05 05:30 38.50490 -116.76140 33852 ft 447 kts 271°
2026-05-05 05:31 38.50749 -116.84079 33846 ft 448 kts 271°
2026-05-05 05:31 38.51001 -116.92030 33846 ft 449 kts 272°
2026-05-05 05:32 38.51248 -116.99940 33843 ft 449 kts 272°
2026-05-05 05:32 38.51491 -117.07908 33838 ft 450 kts 272°
2026-05-05 05:33 38.51729 -117.15897 33844 ft 451 kts 272°
2026-05-05 05:33 38.51963 -117.23902 33850 ft 452 kts 272°
2026-05-05 05:34 38.52224 -117.31888 33850 ft 454 kts 274°
2026-05-05 05:34 38.52724 -117.39935 33848 ft 455 kts 275°
2026-05-05 05:35 38.53265 -117.47996 33874 ft 456 kts 276°
2026-05-05 05:35 38.53771 -117.56082 33855 ft 457 kts 276°
2026-05-05 05:36 38.54251 -117.64131 33857 ft 458 kts 275°
2026-05-05 05:36 38.54726 -117.72248 33834 ft 458 kts 275°
2026-05-05 05:37 38.55197 -117.80360 33858 ft 458 kts 275°
2026-05-05 05:37 38.55663 -117.88479 33855 ft 458 kts 275°
2026-05-05 05:38 38.56121 -117.96540 33869 ft 458 kts 275°
2026-05-05 05:38 38.56602 -118.04657 33861 ft 458 kts 277°
2026-05-05 05:39 38.57432 -118.12725 33861 ft 458 kts 280°
2026-05-05 05:39 38.58751 -118.20661 33875 ft 456 kts 288°
2026-05-05 05:40 38.60477 -118.28392 33879 ft 455 kts 288°
2026-05-05 05:40 38.62160 -118.36209 33901 ft 456 kts 287°
2026-05-05 05:41 38.63774 -118.44068 33910 ft 458 kts 287°
2026-05-05 05:41 38.65380 -118.51966 33933 ft 459 kts 287°
2026-05-05 05:42 38.66988 -118.59888 33941 ft 461 kts 287°
2026-05-05 05:42 38.68584 -118.67807 33865 ft 463 kts 287°
2026-05-05 05:43 38.70189 -118.75805 33836 ft 465 kts 287°
2026-05-05 05:43 38.71804 -118.83884 33845 ft 466 kts 287°
2026-05-05 05:44 38.73409 -118.91939 33859 ft 467 kts 287°
2026-05-05 05:44 38.75012 -119.00015 33849 ft 468 kts 288°
2026-05-05 05:45 38.76614 -119.08114 33861 ft 469 kts 288°
2026-05-05 05:45 38.78176 -119.16062 33427 ft 458 kts 288°
2026-05-05 05:46 38.78945 -119.19987 33021 ft 452 kts 288°
2026-05-05 05:46 38.79706 -119.23872 32560 ft 446 kts 288°
2026-05-05 05:46 38.80457 -119.27714 32109 ft 443 kts 288°
2026-05-05 05:46 38.81202 -119.31528 31642 ft 439 kts 288°
2026-05-05 05:47 38.81940 -119.35312 31186 ft 435 kts 289°
2026-05-05 05:47 38.82670 -119.39061 30766 ft 432 kts 289°
2026-05-05 05:47 38.83393 -119.42783 30343 ft 429 kts 289°
2026-05-05 05:47 38.84101 -119.46438 29909 ft 426 kts 289°
2026-05-05 05:48 38.84813 -119.50116 29390 ft 423 kts 289°
2026-05-05 05:48 38.85516 -119.53757 28965 ft 418 kts 289°
2026-05-05 05:48 38.86210 -119.57361 28536 ft 413 kts 288°
2026-05-05 05:48 38.86442 -119.58566 28404 ft 412 kts 288°
2026-05-05 05:49 38.87574 -119.64453 27692 ft 405 kts 288°
2026-05-05 05:49 38.88245 -119.67952 27251 ft 403 kts 288°
2026-05-05 05:49 38.88911 -119.71429 26832 ft 400 kts 288°
2026-05-05 05:49 38.89125 -119.72549 26697 ft 399 kts 288°
2026-05-05 05:50 38.90217 -119.78264 26004 ft 395 kts 288°
2026-05-05 05:50 38.90657 -119.80573 25726 ft 393 kts 288°
2026-05-05 05:51 38.92674 -119.91190 24507 ft 389 kts 288°
2026-05-05 05:51 38.93314 -119.94569 24078 ft 388 kts 288°
2026-05-05 05:51 38.93948 -119.97928 23679 ft 387 kts 288°
2026-05-05 05:51 38.94581 -120.01283 23145 ft 386 kts 288°
2026-05-05 05:52 38.94998 -120.03500 22863 ft 384 kts 287°
2026-05-05 05:52 38.95833 -120.07944 22325 ft 381 kts 287°
2026-05-05 05:52 38.96451 -120.11236 21931 ft 378 kts 288°
2026-05-05 05:52 38.97057 -120.14471 21531 ft 376 kts 287°
2026-05-05 05:53 38.97666 -120.17727 21151 ft 374 kts 287°
2026-05-05 05:53 38.98272 -120.20972 20760 ft 372 kts 287°
2026-05-05 05:53 38.98872 -120.24188 20388 ft 369 kts 287°
2026-05-05 05:53 38.99467 -120.27388 20007 ft 368 kts 287°
2026-05-05 05:54 39.00073 -120.30582 19571 ft 368 kts 288°
2026-05-05 05:54 39.00690 -120.33776 19139 ft 368 kts 288°
2026-05-05 05:54 39.01309 -120.36970 18688 ft 369 kts 288°
2026-05-05 05:54 39.01922 -120.40141 18196 ft 372 kts 288°
2026-05-05 05:55 39.02544 -120.43369 17681 ft 371 kts 289°
2026-05-05 05:55 39.03160 -120.46581 17226 ft 370 kts 289°
2026-05-05 05:55 39.03776 -120.49801 16763 ft 370 kts 289°
2026-05-05 05:55 39.04390 -120.53014 16326 ft 370 kts 289°
2026-05-05 05:56 39.05003 -120.56229 15881 ft 370 kts 289°
2026-05-05 05:56 39.05614 -120.59434 15432 ft 368 kts 289°
2026-05-05 05:56 39.06215 -120.62601 14978 ft 361 kts 289°
2026-05-05 05:56 39.06796 -120.65670 14562 ft 355 kts 289°
2026-05-05 05:57 39.07211 -120.68789 14117 ft 357 kts 273°
2026-05-05 05:57 39.06772 -120.71930 13715 ft 357 kts 256°
2026-05-05 05:57 39.06005 -120.74947 13242 ft 353 kts 253°
2026-05-05 05:57 39.05200 -120.77913 12790 ft 349 kts 253°
2026-05-05 05:58 39.04403 -120.80840 12357 ft 344 kts 253°
2026-05-05 05:58 39.03627 -120.83723 11946 ft 338 kts 254°
2026-05-05 05:58 39.02872 -120.86561 11538 ft 333 kts 254°
2026-05-05 05:58 39.02134 -120.89362 11144 ft 328 kts 254°
2026-05-05 05:59 39.01422 -120.92078 10743 ft 323 kts 255°
2026-05-05 05:59 39.00713 -120.94790 10379 ft 317 kts 255°
2026-05-05 05:59 39.00016 -120.97454 10013 ft 312 kts 254°
2026-05-05 05:59 38.99339 -121.00039 9913 ft 296 kts 254°
2026-05-05 06:00 38.98693 -121.02502 9649 ft 287 kts 254°
2026-05-05 06:00 38.98063 -121.04903 9377 ft 280 kts 254°
2026-05-05 06:00 38.97445 -121.07258 9122 ft 278 kts 254°
2026-05-05 06:00 38.96825 -121.09623 8809 ft 281 kts 253°
2026-05-05 06:01 38.96198 -121.12003 8516 ft 282 kts 253°
2026-05-05 06:01 38.95577 -121.14356 8166 ft 282 kts 252°
2026-05-05 06:01 38.94946 -121.16745 7790 ft 282 kts 252°
2026-05-05 06:01 38.94323 -121.19100 7407 ft 276 kts 252°
2026-05-05 06:02 38.93713 -121.21407 7028 ft 270 kts 251°
2026-05-05 06:02 38.93114 -121.23667 6659 ft 265 kts 251°
2026-05-05 06:02 38.92528 -121.25881 6288 ft 260 kts 250°
2026-05-05 06:02 38.91944 -121.28084 5915 ft 261 kts 250°
2026-05-05 06:03 38.91357 -121.30296 5525 ft 263 kts 250°
2026-05-05 06:03 38.91165 -121.31019 5414 ft 263 kts 250°
2026-05-05 06:03 38.89516 -121.37217 4371 ft 266 kts 250°
2026-05-05 06:04 38.88910 -121.39470 4001 ft 267 kts 249°
2026-05-05 06:04 38.88285 -121.41690 3746 ft 263 kts 249°
2026-05-05 06:04 38.87663 -121.43869 3535 ft 257 kts 249°
2026-05-05 06:04 38.87065 -121.45968 3337 ft 251 kts 249°
2026-05-05 06:05 38.86471 -121.48048 3141 ft 245 kts 249°
2026-05-05 06:05 38.85893 -121.50082 2961 ft 239 kts 249°
2026-05-05 06:05 38.85329 -121.52064 2782 ft 234 kts 249°
2026-05-05 06:05 38.84777 -121.54000 2628 ft 228 kts 249°
2026-05-05 06:06 38.84239 -121.55886 2467 ft 222 kts 249°
2026-05-05 06:06 38.83723 -121.57696 2322 ft 211 kts 249°
2026-05-05 06:06 38.82982 -121.59225 2122 ft 199 kts 217°
2026-05-05 06:06 38.81720 -121.59713 2005 ft 185 kts 184°
2026-05-05 06:07 38.80501 -121.59866 1844 ft 173 kts 190°
2026-05-05 06:07 38.79271 -121.59992 1763 ft 183 kts 182°
2026-05-05 06:07 38.77992 -121.59994 1511 ft 180 kts 182°
2026-05-05 06:07 38.76794 -121.60007 1309 ft 161 kts 182°
2026-05-05 06:08 38.75722 -121.60024 1061 ft 147 kts 182°
2026-05-05 06:08 38.74694 -121.60043 857 ft 147 kts 181°
2026-05-05 06:08 38.73663 -121.60059 648 ft 148 kts 181°
2026-05-05 06:08 38.72633 -121.60079 460 ft 151 kts 181°
2026-05-05 06:09 38.71591 -121.60090 256 ft 153 kts 181°
2026-05-05 06:09 38.70530 -121.60113 44 ft 152 kts 181°
2026-05-05 06:09 38.69577 -121.60129 21 ft 112 kts 180°
2026-05-05 06:09 38.68986 -121.60138 28 ft 66 kts 180°
2026-05-05 06:10 38.68584 -121.60147 25 ft 46 kts 181°
2026-05-05 06:10 38.68393 -121.60098 22 ft 16 kts 120°
2026-05-05 06:10 38.68385 -121.59961 22 ft 15 kts 90°
2026-05-05 06:10 38.68446 -121.59881 22 ft 15 kts 357°
2026-05-05 06:11 38.68545 -121.59882 22 ft 14 kts
2026-05-05 06:11 38.68644 -121.59880 22 ft 16 kts
2026-05-05 06:11 38.68768 -121.59879 23 ft 20 kts
2026-05-05 06:11 38.68916 -121.59878 22 ft 22 kts
2026-05-05 06:12 38.69063 -121.59875 22 ft 21 kts
2026-05-05 06:12 38.69206 -121.59872 22 ft 20 kts
2026-05-05 06:12 38.69345 -121.59870 22 ft 20 kts
2026-05-05 06:12 38.69479 -121.59870 24 ft 19 kts
2026-05-05 06:13 38.69609 -121.59865 22 ft 18 kts
2026-05-05 06:13 38.69707 -121.59831 23 ft 12 kts 73°
2026-05-05 06:13 38.69702 -121.59726 22 ft 12 kts 95°
2026-05-05 06:13 38.69699 -121.59606 22 ft 16 kts 91°
2026-05-05 06:14 38.69698 -121.59460 22 ft 16 kts 90°
2026-05-05 06:14 38.69697 -121.59317 22 ft 17 kts 90°
2026-05-05 06:14 38.69696 -121.59165 22 ft 17 kts 90°
2026-05-05 06:14 38.69693 -121.59020 22 ft 16 kts 91°
2026-05-05 06:15 38.69692 -121.58879 22 ft 15 kts 90°
2026-05-05 06:15 38.69691 -121.58734 22 ft 17 kts 90°
2026-05-05 06:15 38.69656 -121.58612 22 ft 16 kts 166°
2026-05-05 06:15 38.69547 -121.58614 22 ft 15 kts 181°
2026-05-05 06:16 38.69442 -121.58615 22 ft 15 kts 174°
2026-05-05 06:16 38.69392 -121.58515 22 ft 14 kts 123°
2026-05-05 06:16 38.69300 -121.58496 22 ft 13 kts 182°
2026-05-05 06:16 38.69211 -121.58510 24 ft 13 kts 212°
2026-05-05 06:17 38.69198 -121.58612 22 ft 13 kts 297°
2026-05-05 06:17 38.69239 -121.58656 22 ft 4 kts 348°
2026-05-05 06:17 38.69250 -121.58659 23 ft 1 kts 350°
2026-05-05 06:17 38.69252 -121.58659 23 ft 0 kts 350°